| time (UTC) | temp F | wind direction | speed knots | gust knots | rain 1hr in | rain 24hr in | rain mn in | humidity % | barometer mb |
| 20260509230048 | 76 | 204 | 0.9 | 6.1 | 0.00 | 0.00 | 0.00 | 46 | 1007.2 |
| 20260509225535 | 76 | 238 | 0.9 | 6.1 | 0.00 | 0.00 | 0.00 | 46 | 1007.2 |
| 20260509225037 | 76 | 0 | 0.9 | 6.1 | 0.00 | 0.00 | 0.00 | 46 | 1007.1 |
| 20260509224557 | 76 | 184 | 0.9 | 6.1 | 0.00 | 0.00 | 0.00 | 45 | 1007.0 |
| 20260509224034 | 76 | 155 | 1.7 | 6.1 | 0.00 | 0.00 | 0.00 | 45 | 1007.0 |
| 20260509223535 | 77 | 241 | 1.7 | 4.3 | 0.00 | 0.00 | 0.00 | 45 | 1007.0 |
| 20260509223059 | 77 | 251 | 0.9 | 7.0 | 0.00 | 0.00 | 0.00 | 45 | 1007.1 |
| 20260509222538 | 76 | 0 | 0.9 | 7.0 | 0.00 | 0.00 | 0.00 | 45 | 1007.1 |
| 20260509222036 | 76 | 234 | 1.7 | 6.1 | 0.00 | 0.00 | 0.00 | 45 | 1007.2 |
| 20260509221602 | 76 | 213 | 0.9 | 6.1 | 0.00 | 0.00 | 0.00 | 45 | 1007.2 |
| 20260509221034 | 76 | 273 | 0.9 | 7.0 | 0.00 | 0.00 | 0.00 | 45 | 1007.2 |
| 20260509220534 | 76 | 244 | 1.7 | 7.0 | 0.00 | 0.00 | 0.00 | 45 | 1007.2 |
| 20260509220053 | 76 | 236 | 1.7 | 7.0 | 0.00 | 0.00 | 0.00 | 44 | 1007.1 |
| 20260509215534 | 76 | 137 | 2.6 | 7.8 | 0.00 | 0.00 | 0.00 | 44 | 1007.1 |
| 20260509215035 | 76 | 248 | 2.6 | 7.8 | 0.00 | 0.00 | 0.00 | 45 | 1007.2 |
| 20260509214554 | 76 | 235 | 0.9 | 7.8 | 0.00 | 0.00 | 0.00 | 46 | 1007.1 |
| 20260509214037 | 76 | 270 | 0.9 | 7.8 | 0.00 | 0.00 | 0.00 | 46 | 1007.2 |
| 20260509213535 | 76 | 167 | 3.5 | 7.8 | 0.00 | 0.00 | 0.00 | 45 | 1007.2 |
| 20260509213054 | 76 | 219 | 1.7 | 7.0 | 0.00 | 0.00 | 0.00 | 45 | 1007.2 |
| 20260509212534 | 76 | 264 | 2.6 | 10.4 | 0.00 | 0.00 | 0.00 | 45 | 1007.2 |
| 20260509212034 | 77 | 196 | 2.6 | 10.4 | 0.00 | 0.00 | 0.00 | 44 | 1007.1 |
| 20260509211547 | 77 | 201 | 2.6 | 8.7 | 0.00 | 0.00 | 0.00 | 44 | 1007.1 |
| 20260509211036 | 78 | 211 | 0.9 | 7.8 | 0.00 | 0.00 | 0.00 | 45 | 1007.0 |
| 20260509210537 | 78 | 242 | 1.7 | 7.8 | 0.00 | 0.00 | 0.00 | 43 | 1007.0 |
| 20260509205535 | 78 | 196 | 0.9 | 8.7 | 0.00 | 0.00 | 0.00 | 45 | 1007.0 |
| 20260509205035 | 78 | 63 | 1.7 | 8.7 | 0.00 | 0.00 | 0.00 | 46 | 1006.8 |
| 20260509204557 | 78 | 180 | 3.5 | 7.0 | 0.00 | 0.00 | 0.00 | 44 | 1006.9 |
| 20260509204035 | 79 | 221 | 0.9 | 6.1 | 0.00 | 0.00 | 0.00 | 44 | 1006.9 |
| 20260509203539 | 78 | 224 | 0.9 | 7.0 | 0.00 | 0.00 | 0.00 | 45 | 1006.9 |
| 20260509203056 | 78 | 248 | 1.7 | 8.7 | 0.00 | 0.00 | 0.00 | 45 | 1006.9 |
| 20260509202536 | 77 | 275 | 2.6 | 8.7 | 0.00 | 0.00 | 0.00 | 46 | 1006.9 |
| 20260509202035 | 77 | 234 | 1.7 | 7.0 | 0.00 | 0.00 | 0.00 | 48 | 1006.9 |
| 20260509201556 | 76 | 292 | 0.9 | 8.7 | 0.00 | 0.00 | 0.00 | 49 | 1007.0 |
| 20260509201035 | 76 | 155 | 1.7 | 9.6 | 0.00 | 0.00 | 0.00 | 49 | 1007.1 |
| 20260509200534 | 76 | 146 | 1.7 | 9.6 | 0.00 | 0.00 | 0.00 | 49 | 1007.2 |
| 20260509200059 | 76 | 241 | 2.6 | 7.8 | 0.00 | 0.00 | 0.00 | 48 | 1007.3 |
| 20260509195536 | 76 | 182 | 0.9 | 7.0 | 0.00 | 0.00 | 0.00 | 49 | 1007.4 |
| 20260509195034 | 76 | 269 | 2.6 | 7.0 | 0.00 | 0.00 | 0.00 | 47 | 1007.4 |
| 20260509194552 | 77 | 268 | 0.9 | 7.0 | 0.00 | 0.00 | 0.00 | 48 | 1007.4 |
| 20260509194037 | 76 | 0 | 0.9 | 7.0 | 0.00 | 0.00 | 0.00 | 49 | 1007.4 |
| 20260509193536 | 76 | 0 | 0.0 | 6.1 | 0.00 | 0.00 | 0.00 | 51 | 1007.7 |
| 20260509193047 | 75 | 242 | 1.7 | 7.8 | 0.00 | 0.00 | 0.00 | 52 | 1007.7 |
| 20260509192535 | 74 | 260 | 2.6 | 7.8 | 0.00 | 0.00 | 0.00 | 52 | 1007.9 |
| 20260509192035 | 74 | 276 | 0.9 | 6.1 | 0.00 | 0.00 | 0.00 | 55 | 1008.0 |
| 20260509191550 | 73 | 242 | 1.7 | 6.1 | 0.00 | 0.00 | 0.00 | 55 | 1008.1 |
| 20260509191037 | 73 | 246 | 0.0 | 5.2 | 0.00 | 0.00 | 0.00 | 54 | 1008.2 |
| 20260509190534 | 73 | 171 | 1.7 | 5.2 | 0.00 | 0.00 | 0.00 | 54 | 1008.2 |
| 20260509185535 | 74 | 279 | 1.7 | 6.1 | 0.00 | 0.00 | 0.00 | 53 | 1008.4 |
| 20260509185035 | 74 | 0 | 0.0 | 7.8 | 0.00 | 0.00 | 0.00 | 55 | 1008.4 |
| 20260509184545 | 74 | 271 | 1.7 | 7.8 | 0.00 | 0.00 | 0.00 | 54 | 1008.5 |
| 20260509184036 | 73 | 246 | 1.7 | 7.0 | 0.00 | 0.00 | 0.00 | 56 | 1008.5 |
| 20260509183536 | 72 | 263 | 0.9 | 7.8 | 0.00 | 0.00 | 0.00 | 56 | 1008.6 |
| 20260509183053 | 72 | 260 | 2.6 | 7.8 | 0.00 | 0.00 | 0.00 | 55 | 1008.8 |
| 20260509182534 | 73 | 242 | 1.7 | 7.8 | 0.00 | 0.00 | 0.00 | 55 | 1008.8 |
| 20260509182034 | 73 | 270 | 2.6 | 7.0 | 0.00 | 0.00 | 0.00 | 54 | 1008.8 |
| 20260509181559 | 73 | 132 | 1.7 | 5.2 | 0.00 | 0.00 | 0.00 | 54 | 1008.9 |
| 20260509181035 | 73 | 218 | 0.9 | 5.2 | 0.00 | 0.00 | 0.00 | 54 | 1008.9 |
| 20260509180535 | 73 | 248 | 1.7 | 5.2 | 0.00 | 0.00 | 0.00 | 54 | 1008.9 |
| 20260509180059 | 73 | 260 | 1.7 | 5.2 | 0.00 | 0.00 | 0.00 | 54 | 1009.1 |
| 20260509175535 | 73 | 182 | 0.0 | 8.7 | 0.00 | 0.00 | 0.00 | 54 | 1009.0 |
| 20260509175035 | 73 | 257 | 0.0 | 8.7 | 0.00 | 0.00 | 0.00 | 54 | 1009.1 |
| 20260509174549 | 72 | 230 | 1.7 | 7.0 | 0.00 | 0.00 | 0.00 | 54 | 1009.2 |
| 20260509174034 | 72 | 157 | 1.7 | 7.0 | 0.00 | 0.00 | 0.00 | 55 | 1009.1 |
| 20260509173535 | 72 | 265 | 1.7 | 8.7 | 0.00 | 0.00 | 0.00 | 55 | 1009.2 |
| 20260509173049 | 72 | 5 | 0.9 | 8.7 | 0.00 | 0.00 | 0.00 | 55 | 1009.2 |
| 20260509172536 | 72 | 217 | 1.7 | 8.7 | 0.00 | 0.00 | 0.00 | 54 | 1009.3 |
| 20260509172035 | 72 | 279 | 3.5 | 8.7 | 0.00 | 0.00 | 0.00 | 56 | 1009.4 |
| 20260509171548 | 72 | 257 | 3.5 | 10.4 | 0.00 | 0.00 | 0.00 | 56 | 1009.4 |
| 20260509171035 | 71 | 127 | 3.5 | 10.4 | 0.00 | 0.00 | 0.00 | 57 | 1009.5 |
| 20260509170534 | 70 | 213 | 1.7 | 6.1 | 0.00 | 0.00 | 0.00 | 58 | 1009.6 |
| 20260509170047 | 70 | 242 | 0.0 | 8.7 | 0.00 | 0.00 | 0.00 | 58 | 1009.5 |
| 20260509165534 | 70 | 237 | 2.6 | 9.6 | 0.00 | 0.00 | 0.00 | 57 | 1009.6 |
| 20260509165038 | 70 | 213 | 1.7 | 10.4 | 0.00 | 0.00 | 0.00 | 57 | 1009.7 |
| 20260509164550 | 70 | 247 | 5.2 | 10.4 | 0.00 | 0.00 | 0.00 | 56 | 1009.6 |
| 20260509164035 | 70 | 232 | 1.7 | 7.8 | 0.00 | 0.00 | 0.00 | 56 | 1009.7 |
| 20260509163537 | 70 | 249 | 2.6 | 8.7 | 0.00 | 0.00 | 0.00 | 55 | 1009.6 |
| 20260509163053 | 70 | 275 | 3.5 | 8.7 | 0.00 | 0.00 | 0.00 | 55 | 1009.6 |
| 20260509162534 | 70 | 230 | 2.6 | 7.8 | 0.00 | 0.00 | 0.00 | 55 | 1009.6 |
| 20260509162035 | 70 | 253 | 3.5 | 10.4 | 0.00 | 0.00 | 0.00 | 55 | 1009.7 |
| 20260509161557 | 71 | 184 | 3.5 | 10.4 | 0.00 | 0.00 | 0.00 | 54 | 1009.7 |
| 20260509161034 | 71 | 229 | 3.5 | 10.4 | 0.00 | 0.00 | 0.00 | 54 | 1009.6 |
| 20260509160535 | 71 | 242 | 1.7 | 13.0 | 0.00 | 0.00 | 0.00 | 54 | 1009.7 |
| 20260509160051 | 71 | 282 | 3.5 | 13.0 | 0.00 | 0.00 | 0.00 | 53 | 1009.7 |
| 20260509155535 | 71 | 246 | 3.5 | 13.0 | 0.00 | 0.00 | 0.00 | 53 | 1009.8 |
| 20260509155034 | 71 | 339 | 2.6 | 10.4 | 0.00 | 0.00 | 0.00 | 54 | 1009.7 |
| 20260509154553 | 71 | 254 | 2.6 | 9.6 | 0.00 | 0.00 | 0.00 | 54 | 1009.9 |
| 20260509154034 | 71 | 211 | 3.5 | 9.6 | 0.00 | 0.00 | 0.00 | 55 | 1009.8 |
| 20260509153537 | 71 | 205 | 2.6 | 9.6 | 0.00 | 0.00 | 0.00 | 54 | 1009.8 |
| 20260509153053 | 71 | 141 | 3.5 | 12.2 | 0.00 | 0.00 | 0.00 | 53 | 1010.0 |
| 20260509152534 | 71 | 94 | 2.6 | 12.2 | 0.00 | 0.00 | 0.00 | 55 | 1010.0 |
| 20260509152037 | 71 | 201 | 3.5 | 9.6 | 0.00 | 0.00 | 0.00 | 55 | 1010.1 |
| 20260509151550 | 70 | 139 | 3.5 | 7.0 | 0.00 | 0.00 | 0.00 | 56 | 1010.1 |
| 20260509151036 | 70 | 217 | 2.6 | 8.7 | 0.00 | 0.00 | 0.00 | 57 | 1009.9 |
| 20260509150539 | 69 | 39 | 2.6 | 9.6 | 0.00 | 0.00 | 0.00 | 57 | 1009.9 |
| 20260509150052 | 69 | 167 | 1.7 | 9.6 | 0.00 | 0.00 | 0.00 | 57 | 1009.9 |
| 20260509145534 | 69 | 239 | 3.5 | 9.6 | 0.00 | 0.00 | 0.00 | 58 | 1010.1 |
| 20260509145034 | 68 | 109 | 1.7 | 7.8 | 0.00 | 0.00 | 0.00 | 60 | 1010.2 |
| 20260509144547 | 68 | 155 | 2.6 | 12.2 | 0.00 | 0.00 | 0.00 | 59 | 1010.3 |
| 20260509144034 | 67 | 285 | 1.7 | 12.2 | 0.00 | 0.00 | 0.00 | 59 | 1010.4 |
| 20260509143535 | 67 | 196 | 3.5 | 9.6 | 0.00 | 0.00 | 0.00 | 58 | 1010.5 |
| 20260509143047 | 67 | 132 | 2.6 | 9.6 | 0.00 | 0.00 | 0.00 | 60 | 1010.7 |
| 20260509142535 | 66 | 153 | 2.6 | 8.7 | 0.00 | 0.00 | 0.00 | 59 | 1010.7 |
| 20260509142034 | 66 | 246 | 1.7 | 7.8 | 0.00 | 0.00 | 0.00 | 60 | 1010.7 |
| 20260509141556 | 66 | 144 | 0.9 | 7.8 | 0.00 | 0.00 | 0.00 | 62 | 1010.6 |
| 20260509141039 | 65 | 313 | 1.7 | 7.0 | 0.00 | 0.00 | 0.00 | 62 | 1010.7 |
| 20260509140534 | 65 | 106 | 2.6 | 7.0 | 0.00 | 0.00 | 0.00 | 62 | 1010.8 |
| 20260509140100 | 65 | 167 | 0.9 | 7.8 | 0.00 | 0.00 | 0.00 | 63 | 1010.8 |
| 20260509135534 | 64 | 344 | 2.6 | 7.8 | 0.00 | 0.00 | 0.00 | 63 | 1010.8 |
| 20260509135036 | 64 | 227 | 1.7 | 7.0 | 0.00 | 0.00 | 0.00 | 63 | 1011.0 |
| 20260509134623 | 64 | 171 | 1.7 | 7.0 | 0.00 | 0.00 | 0.00 | 63 | 1011.0 |
| 20260509134037 | 63 | 328 | 1.7 | 7.8 | 0.00 | 0.00 | 0.00 | 64 | 1011.0 |
| 20260509133537 | 63 | 193 | 1.7 | 7.8 | 0.00 | 0.00 | 0.00 | 65 | 1011.0 |
| 20260509133050 | 63 | 165 | 2.6 | 7.0 | 0.00 | 0.00 | 0.00 | 65 | 1011.1 |
| 20260509132535 | 63 | 168 | 1.7 | 7.8 | 0.00 | 0.00 | 0.00 | 66 | 1011.1 |
| 20260509132038 | 62 | 0 | 1.7 | 7.8 | 0.00 | 0.00 | 0.00 | 66 | 1011.1 |
| 20260509131552 | 62 | 291 | 0.9 | 5.2 | 0.00 | 0.00 | 0.00 | 67 | 1011.1 |
| 20260509131035 | 61 | 250 | 0.9 | 4.3 | 0.00 | 0.00 | 0.00 | 68 | 1011.1 |
| 20260509130535 | 61 | 159 | 0.9 | 6.1 | 0.00 | 0.00 | 0.00 | 69 | 1011.2 |
| 20260509130047 | 61 | 155 | 1.7 | 6.1 | 0.00 | 0.00 | 0.00 | 69 | 1011.2 |
| 20260509125535 | 60 | 180 | 0.0 | 9.6 | 0.00 | 0.00 | 0.00 | 70 | 1011.2 |
| 20260509125036 | 60 | 206 | 2.6 | 9.6 | 0.00 | 0.00 | 0.00 | 70 | 1011.2 |
| 20260509124547 | 59 | 183 | 0.9 | 6.1 | 0.00 | 0.00 | 0.00 | 71 | 1011.3 |
| 20260509124034 | 59 | 200 | 1.7 | 4.3 | 0.00 | 0.00 | 0.00 | 71 | 1011.3 |
| 20260509123534 | 59 | 0 | 0.9 | 6.1 | 0.00 | 0.00 | 0.00 | 71 | 1011.3 |
| 20260509123044 | 59 | 164 | 1.7 | 6.1 | 0.00 | 0.00 | 0.00 | 72 | 1011.3 |
| 20260509122534 | 58 | 181 | 1.7 | 6.1 | 0.00 | 0.00 | 0.00 | 72 | 1011.2 |
| 20260509122035 | 58 | 178 | 0.9 | 5.2 | 0.00 | 0.00 | 0.00 | 72 | 1011.2 |
| 20260509121552 | 58 | 55 | 0.0 | 5.2 | 0.00 | 0.00 | 0.00 | 73 | 1011.2 |
| 20260509121035 | 58 | 161 | 0.9 | 6.1 | 0.00 | 0.00 | 0.00 | 73 | 1011.3 |
| 20260509120538 | 57 | 0 | 0.9 | 6.1 | 0.00 | 0.00 | 0.00 | 73 | 1011.2 |
| 20260509120049 | 57 | 71 | 1.7 | 9.6 | 0.00 | 0.00 | 0.00 | 73 | 1011.3 |
| 20260509115534 | 57 | 0 | 1.7 | 9.6 | 0.00 | 0.00 | 0.00 | 74 | 1011.4 |
| 20260509115037 | 57 | 0 | 2.6 | 9.6 | 0.00 | 0.00 | 0.00 | 74 | 1011.4 |
| 20260509114554 | 57 | 127 | 0.9 | 7.8 | 0.00 | 0.00 | 0.00 | 74 | 1011.4 |
| 20260509114035 | 57 | 167 | 1.7 | 7.8 | 0.00 | 0.00 | 0.00 | 74 | 1011.4 |
| 20260509113535 | 56 | 222 | 0.9 | 5.2 | 0.00 | 0.00 | 0.00 | 75 | 1011.3 |
| 20260509113051 | 55 | 82 | 1.7 | 5.2 | 0.00 | 0.00 | 0.00 | 76 | 1011.4 |
| 20260509112534 | 55 | 183 | 0.0 | 7.0 | 0.00 | 0.00 | 0.00 | 76 | 1011.4 |
| 20260509112034 | 54 | 112 | 0.0 | 7.0 | 0.00 | 0.00 | 0.00 | 76 | 1011.4 |
| 20260509111551 | 54 | 159 | 0.0 | 4.3 | 0.00 | 0.00 | 0.00 | 77 | 1011.4 |
| 20260509111034 | 53 | 134 | 0.0 | 3.5 | 0.00 | 0.00 | 0.00 | 77 | 1011.4 |
| 20260509110538 | 53 | 0 | 0.0 | 2.6 | 0.00 | 0.00 | 0.00 | 77 | 1011.3 |
| 20260509110050 | 53 | 0 | 0.0 | 2.6 | 0.00 | 0.00 | 0.00 | 77 | 1011.3 |
| 20260509105534 | 53 | 0 | 0.9 | 2.6 | 0.00 | 0.00 | 0.00 | 77 | 1011.2 |
| 20260509105034 | 53 | 71 | 0.0 | 0.0 | 0.00 | 0.00 | 0.00 | 76 | 1011.1 |
| 20260509104546 | 53 | 0 | 0.0 | 0.0 | 0.00 | 0.00 | 0.00 | 76 | 1011.2 |
| 20260509104034 | 53 | 0 | 0.0 | 0.0 | 0.00 | 0.00 | 0.00 | 75 | 1011.1 |
| 20260509103535 | 53 | 0 | 0.0 | 1.7 | 0.00 | 0.00 | 0.00 | 75 | 1011.2 |
| 20260509103101 | 53 | 0 | 0.0 | 2.6 | 0.00 | 0.00 | 0.00 | 75 | 1011.2 |
| 20260509102538 | 53 | 0 | 0.0 | 2.6 | 0.00 | 0.00 | 0.00 | 75 | 1011.2 |
| 20260509102038 | 53 | 75 | 0.0 | 2.6 | 0.00 | 0.00 | 0.00 | 75 | 1011.3 |
| 20260509101553 | 53 | 0 | 0.0 | 2.6 | 0.00 | 0.00 | 0.00 | 75 | 1011.2 |
| 20260509101037 | 53 | 0 | 0.9 | 2.6 | 0.00 | 0.00 | 0.00 | 74 | 1011.1 |
| 20260509100540 | 53 | 0 | 0.0 | 4.3 | 0.00 | 0.00 | 0.00 | 74 | 1011.1 |
| 20260509100046 | 53 | 0 | 0.0 | 4.3 | 0.00 | 0.00 | 0.00 | 73 | 1011.1 |
| 20260509095539 | 54 | 71 | 0.0 | 4.3 | 0.00 | 0.00 | 0.00 | 72 | 1011.0 |
| 20260509095038 | 54 | 105 | 0.0 | 3.5 | 0.00 | 0.00 | 0.00 | 73 | 1011.1 |
| 20260509094551 | 54 | 93 | 0.9 | 3.5 | 0.00 | 0.00 | 0.00 | 73 | 1011.0 |
| 20260509094038 | 54 | 90 | 0.0 | 3.5 | 0.00 | 0.00 | 0.00 | 71 | 1011.1 |
| 20260509093538 | 54 | 0 | 0.0 | 0.0 | 0.00 | 0.00 | 0.00 | 70 | 1011.1 |
| 20260509093049 | 54 | 0 | 0.0 | 1.7 | 0.00 | 0.00 | 0.00 | 71 | 1011.1 |
| 20260509092538 | 54 | 0 | 0.0 | 3.5 | 0.00 | 0.00 | 0.00 | 71 | 1011.2 |
| 20260509092038 | 54 | 67 | 0.9 | 3.5 | 0.00 | 0.00 | 0.00 | 71 | 1011.1 |
| 20260509091551 | 55 | 0 | 0.0 | 2.6 | 0.00 | 0.00 | 0.00 | 71 | 1011.0 |
| 20260509091041 | 55 | 127 | 0.0 | 2.6 | 0.00 | 0.00 | 0.00 | 70 | 1011.1 |
| 20260509090538 | 55 | 0 | 0.0 | 0.0 | 0.00 | 0.00 | 0.00 | 71 | 1011.1 |
| 20260509090050 | 55 | 0 | 0.0 | 0.0 | 0.00 | 0.00 | 0.00 | 68 | 1011.0 |
| 20260509085537 | 55 | 0 | 0.0 | 0.0 | 0.00 | 0.00 | 0.00 | 68 | 1011.1 |
| 20260509085038 | 55 | 0 | 0.0 | 0.0 | 0.00 | 0.00 | 0.00 | 68 | 1011.1 |
| 20260509084550 | 55 | 0 | 0.0 | 0.0 | 0.00 | 0.00 | 0.00 | 68 | 1011.1 |
| 20260509084038 | 55 | 0 | 0.0 | 0.0 | 0.00 | 0.00 | 0.00 | 67 | 1011.1 |
| 20260509083539 | 55 | 0 | 0.0 | 0.9 | 0.00 | 0.00 | 0.00 | 67 | 1011.1 |
| 20260509083048 | 56 | 0 | 0.0 | 2.6 | 0.00 | 0.00 | 0.00 | 66 | 1011.1 |
| 20260509082535 | 56 | 0 | 0.0 | 2.6 | 0.00 | 0.00 | 0.00 | 66 | 1011.2 |
| 20260509082038 | 56 | 208 | 0.0 | 0.9 | 0.00 | 0.00 | 0.00 | 65 | 1011.3 |
| 20260509081549 | 56 | 0 | 0.0 | 0.0 | 0.00 | 0.00 | 0.00 | 65 | 1011.4 |
| 20260509081036 | 56 | 0 | 0.0 | 0.9 | 0.00 | 0.00 | 0.00 | 65 | 1011.5 |
| 20260509080538 | 56 | 0 | 0.0 | 2.6 | 0.00 | 0.00 | 0.00 | 65 | 1011.5 |
| 20260509080047 | 56 | 0 | 0.0 | 2.6 | 0.00 | 0.00 | 0.00 | 65 | 1011.6 |
| 20260509075538 | 56 | 0 | 0.0 | 1.7 | 0.00 | 0.00 | 0.00 | 64 | 1011.6 |
| 20260509075038 | 56 | 0 | 0.0 | 2.6 | 0.00 | 0.00 | 0.00 | 65 | 1011.6 |
| 20260509074558 | 56 | 0 | 0.0 | 3.5 | 0.00 | 0.00 | 0.00 | 64 | 1011.7 |
| 20260509074037 | 56 | 0 | 0.0 | 3.5 | 0.00 | 0.00 | 0.00 | 63 | 1011.7 |
| 20260509073538 | 56 | 0 | 0.0 | 4.3 | 0.00 | 0.00 | 0.00 | 63 | 1011.7 |
| 20260509073047 | 56 | 0 | 0.0 | 4.3 | 0.00 | 0.00 | 0.00 | 63 | 1011.8 |
| 20260509072538 | 56 | 218 | 0.9 | 3.5 | 0.00 | 0.00 | 0.00 | 63 | 1011.8 |
| 20260509072039 | 56 | 0 | 0.0 | 4.3 | 0.00 | 0.00 | 0.00 | 64 | 1011.8 |
| 20260509071555 | 56 | 176 | 0.9 | 5.2 | 0.00 | 0.00 | 0.00 | 64 | 1011.8 |
| 20260509071038 | 55 | 202 | 0.9 | 5.2 | 0.00 | 0.00 | 0.00 | 64 | 1011.8 |
| 20260509070538 | 55 | 142 | 0.0 | 4.3 | 0.00 | 0.00 | 0.00 | 65 | 1011.9 |
| 20260509070053 | 54 | 145 | 0.9 | 5.2 | 0.00 | 0.00 | 0.00 | 66 | 1011.9 |
| 20260509065538 | 54 | 0 | 0.0 | 5.2 | 0.00 | 0.00 | 0.00 | 68 | 1011.9 |
| 20260509065035 | 54 | 0 | 0.0 | 0.0 | 0.00 | 0.00 | 0.00 | 70 | 1012.0 |
| 20260509064559 | 54 | 0 | 0.0 | 0.9 | 0.00 | 0.00 | 0.00 | 72 | 1012.0 |
| 20260509064038 | 54 | 0 | 0.0 | 3.5 | 0.00 | 0.00 | 0.00 | 69 | 1012.1 |
| 20260509063538 | 54 | 0 | 0.0 | 4.3 | 0.00 | 0.00 | 0.00 | 70 | 1012.0 |
| 20260509063049 | 54 | 0 | 0.0 | 4.3 | 0.00 | 0.00 | 0.00 | 70 | 1012.1 |
| 20260509062542 | 54 | 0 | 0.0 | 0.0 | 0.00 | 0.00 | 0.00 | 70 | 1012.1 |
| 20260509062042 | 54 | 0 | 0.0 | 0.0 | 0.00 | 0.00 | 0.00 | 72 | 1012.1 |
| 20260509061553 | 54 | 0 | 0.0 | 0.0 | 0.00 | 0.00 | 0.00 | 71 | 1012.1 |
| 20260509061037 | 54 | 0 | 0.0 | 0.0 | 0.00 | 0.00 | 0.00 | 70 | 1012.1 |
| 20260509060538 | 54 | 0 | 0.0 | 0.0 | 0.00 | 0.00 | 0.00 | 71 | 1012.1 |
| 20260509060049 | 54 | 0 | 0.0 | 0.0 | 0.00 | 0.00 | 0.00 | 70 | 1012.1 |
| 20260509055538 | 54 | 0 | 0.0 | 0.0 | 0.00 | 0.00 | 0.00 | 69 | 1012.1 |
| 20260509055038 | 54 | 0 | 0.0 | 0.0 | 0.00 | 0.00 | 0.00 | 69 | 1012.0 |
| 20260509054546 | 54 | 0 | 0.0 | 0.0 | 0.00 | 0.00 | 0.00 | 69 | 1012.0 |
| 20260509054038 | 55 | 0 | 0.0 | 0.0 | 0.00 | 0.00 | 0.00 | 68 | 1012.0 |
| 20260509053536 | 55 | 0 | 0.0 | 0.0 | 0.00 | 0.00 | 0.00 | 67 | 1012.0 |
| 20260509053051 | 55 | 0 | 0.0 | 0.0 | 0.00 | 0.00 | 0.00 | 67 | 1011.9 |
| 20260509052538 | 55 | 0 | 0.0 | 0.0 | 0.00 | 0.00 | 0.00 | 66 | 1012.0 |
| 20260509052037 | 55 | 0 | 0.0 | 0.0 | 0.00 | 0.00 | 0.00 | 68 | 1012.0 |
| 20260509051550 | 55 | 0 | 0.0 | 0.0 | 0.00 | 0.00 | 0.00 | 66 | 1012.0 |
| 20260509051038 | 55 | 0 | 0.0 | 0.0 | 0.00 | 0.00 | 0.00 | 67 | 1012.0 |
| 20260509050538 | 55 | 0 | 0.0 | 0.0 | 0.00 | 0.00 | 0.00 | 64 | 1012.0 |
| 20260509050048 | 55 | 0 | 0.0 | 0.0 | 0.00 | 0.00 | 0.00 | 63 | 1012.0 |
| 20260509045537 | 55 | 0 | 0.0 | 0.0 | 0.00 | 0.00 | 0.00 | 65 | 1011.9 |
| 20260509045037 | 56 | 0 | 0.0 | 0.0 | 0.00 | 0.00 | 0.00 | 65 | 1011.9 |
| 20260509044547 | 56 | 0 | 0.0 | 0.0 | 0.00 | 0.00 | 0.00 | 65 | 1011.9 |
| 20260509044038 | 56 | 0 | 0.0 | 0.0 | 0.00 | 0.00 | 0.00 | 67 | 1011.9 |
| 20260509043538 | 56 | 0 | 0.0 | 0.0 | 0.00 | 0.00 | 0.00 | 65 | 1012.0 |
| 20260509043055 | 56 | 0 | 0.0 | 0.0 | 0.00 | 0.00 | 0.00 | 65 | 1011.9 |
| 20260509042538 | 56 | 0 | 0.0 | 0.9 | 0.00 | 0.00 | 0.00 | 63 | 1011.9 |
| 20260509042035 | 56 | 0 | 0.0 | 1.7 | 0.00 | 0.00 | 0.00 | 63 | 1011.9 |
| 20260509041549 | 56 | 0 | 0.0 | 1.7 | 0.00 | 0.00 | 0.00 | 63 | 1012.0 |
| 20260509041034 | 57 | 0 | 0.0 | 0.9 | 0.00 | 0.00 | 0.00 | 63 | 1012.0 |
| 20260509040537 | 57 | 0 | 0.0 | 0.9 | 0.00 | 0.00 | 0.00 | 60 | 1012.0 |
| 20260509040051 | 57 | 0 | 0.0 | 0.0 | 0.00 | 0.00 | 0.00 | 62 | 1012.1 |
| 20260509035539 | 57 | 0 | 0.0 | 0.0 | 0.00 | 0.00 | 0.00 | 59 | 1012.2 |
| 20260509035035 | 57 | 0 | 0.0 | 0.0 | 0.00 | 0.00 | 0.00 | 62 | 1012.2 |
| 20260509034552 | 57 | 0 | 0.0 | 0.0 | 0.00 | 0.00 | 0.00 | 61 | 1012.3 |
| 20260509034034 | 57 | 0 | 0.0 | 0.0 | 0.00 | 0.00 | 0.00 | 64 | 1012.3 |
| 20260509033534 | 57 | 0 | 0.0 | 0.0 | 0.00 | 0.00 | 0.00 | 65 | 1012.3 |
| 20260509033052 | 58 | 0 | 0.0 | 0.0 | 0.00 | 0.00 | 0.00 | 61 | 1012.4 |
| 20260509032535 | 58 | 0 | 0.0 | 0.0 | 0.00 | 0.00 | 0.00 | 59 | 1012.3 |
| 20260509032034 | 58 | 0 | 0.0 | 0.0 | 0.00 | 0.00 | 0.00 | 60 | 1012.4 |
| 20260509031558 | 58 | 0 | 0.0 | 0.0 | 0.00 | 0.00 | 0.00 | 58 | 1012.3 |
| 20260509031034 | 59 | 0 | 0.0 | 0.0 | 0.00 | 0.00 | 0.00 | 58 | 1012.4 |
| 20260509030534 | 59 | 0 | 0.0 | 0.0 | 0.00 | 0.00 | 0.00 | 58 | 1012.4 |
| 20260509030051 | 59 | 0 | 0.0 | 0.0 | 0.00 | 0.00 | 0.00 | 57 | 1012.3 |
| 20260509025535 | 59 | 0 | 0.0 | 0.0 | 0.00 | 0.00 | 0.00 | 56 | 1012.2 |
| 20260509025035 | 60 | 0 | 0.0 | 1.7 | 0.00 | 0.00 | 0.00 | 54 | 1012.4 |
| 20260509024548 | 60 | 0 | 0.0 | 1.7 | 0.00 | 0.00 | 0.00 | 52 | 1012.4 |
| 20260509024035 | 60 | 0 | 0.0 | 0.9 | 0.00 | 0.00 | 0.00 | 50 | 1012.4 |
| 20260509023534 | 60 | 0 | 0.0 | 0.9 | 0.00 | 0.00 | 0.00 | 53 | 1012.4 |
| 20260509023046 | 60 | 0 | 0.0 | 2.6 | 0.00 | 0.00 | 0.00 | 53 | 1012.3 |
| 20260509022534 | 60 | 0 | 0.0 | 3.5 | 0.00 | 0.00 | 0.00 | 50 | 1012.3 |
| 20260509022035 | 60 | 0 | 0.0 | 3.5 | 0.00 | 0.00 | 0.00 | 50 | 1012.3 |
| 20260509021548 | 60 | 0 | 0.0 | 0.0 | 0.00 | 0.00 | 0.00 | 50 | 1012.2 |
| 20260509021034 | 60 | 0 | 0.0 | 0.9 | 0.00 | 0.00 | 0.00 | 50 | 1012.2 |
| 20260509020534 | 60 | 0 | 0.0 | 0.9 | 0.00 | 0.00 | 0.00 | 53 | 1012.1 |
| 20260509020044 | 61 | 0 | 0.0 | 0.9 | 0.00 | 0.00 | 0.00 | 55 | 1012.1 |
| 20260509015535 | 61 | 0 | 0.0 | 0.9 | 0.00 | 0.00 | 0.00 | 55 | 1012.1 |
| 20260509015040 | 61 | 0 | 0.0 | 0.0 | 0.00 | 0.00 | 0.00 | 53 | 1012.1 |
| 20260509014543 | 61 | 0 | 0.0 | 0.0 | 0.00 | 0.00 | 0.00 | 56 | 1012.0 |
| 20260509014035 | 62 | 0 | 0.0 | 0.0 | 0.00 | 0.00 | 0.00 | 51 | 1012.0 |
| 20260509013535 | 62 | 0 | 0.0 | 0.0 | 0.00 | 0.00 | 0.00 | 50 | 1012.0 |
| 20260509013057 | 62 | 0 | 0.0 | 0.0 | 0.00 | 0.00 | 0.00 | 52 | 1012.0 |
| 20260509012535 | 63 | 0 | 0.0 | 0.0 | 0.00 | 0.00 | 0.00 | 49 | 1012.0 |
| 20260509012035 | 63 | 0 | 0.0 | 0.0 | 0.00 | 0.00 | 0.00 | 48 | 1011.9 |
| 20260509011551 | 64 | 0 | 0.0 | 0.0 | 0.00 | 0.00 | 0.00 | 47 | 1011.9 |
| 20260509011036 | 64 | 0 | 0.0 | 1.7 | 0.00 | 0.00 | 0.00 | 46 | 1011.8 |
| 20260509010534 | 65 | 0 | 0.0 | 1.7 | 0.00 | 0.00 | 0.00 | 45 | 1011.7 |
| 20260509010047 | 65 | 0 | 0.0 | 3.5 | 0.00 | 0.00 | 0.00 | 42 | 1011.7 |
| 20260509005538 | 65 | 0 | 0.0 | 3.5 | 0.00 | 0.00 | 0.00 | 40 | 1011.7 |
| 20260509005035 | 65 | 190 | 0.0 | 3.5 | 0.00 | 0.00 | 0.00 | 40 | 1011.6 |
| 20260509004557 | 66 | 0 | 0.0 | 3.5 | 0.00 | 0.00 | 0.00 | 40 | 1011.7 |
| 20260509004035 | 66 | 0 | 0.0 | 2.6 | 0.00 | 0.00 | 0.00 | 39 | 1011.7 |
| 20260509003535 | 66 | 0 | 0.0 | 3.5 | 0.00 | 0.00 | 0.00 | 38 | 1011.7 |
| 20260509003051 | 67 | 175 | 0.0 | 4.3 | 0.00 | 0.00 | 0.00 | 38 | 1011.6 |
| 20260509002539 | 67 | 0 | 0.9 | 4.3 | 0.00 | 0.00 | 0.00 | 38 | 1011.5 |
| 20260509002035 | 67 | 0 | 0.0 | 2.6 | 0.00 | 0.00 | 0.00 | 37 | 1011.6 |
| 20260509001553 | 67 | 0 | 0.0 | 5.2 | 0.00 | 0.00 | 0.00 | 37 | 1011.5 |
| 20260509001036 | 68 | 0 | 0.0 | 5.2 | 0.00 | 0.00 | 0.00 | 37 | 1011.4 |
| 20260509000536 | 68 | 247 | 0.9 | 5.2 | 0.00 | 0.00 | 0.00 | 37 | 1011.4 |
| 20260509000049 | 68 | 239 | 0.0 | 6.1 | 0.00 | 0.00 | 0.00 | 36 | 1011.3 |
| 20260508235535 | 69 | 171 | 0.0 | 6.1 | 0.00 | 0.00 | 0.00 | 36 | 1011.2 |
| 20260508235037 | 69 | 0 | 0.9 | 9.6 | 0.00 | 0.00 | 0.00 | 35 | 1011.3 |
| 20260508234548 | 69 | 222 | 1.7 | 9.6 | 0.00 | 0.00 | 0.00 | 36 | 1011.2 |
| 20260508234034 | 69 | 180 | 1.7 | 9.6 | 0.00 | 0.00 | 0.00 | 35 | 1011.2 |
| 20260508233538 | 69 | 0 | 1.7 | 5.2 | 0.00 | 0.00 | 0.00 | 35 | 1011.1 |
| 20260508233047 | 70 | 195 | 0.9 | 5.2 | 0.00 | 0.00 | 0.00 | 35 | 1011.1 |
| 20260508232535 | 70 | 231 | 0.9 | 7.0 | 0.00 | 0.00 | 0.00 | 34 | 1011.1 |
| 20260508232035 | 70 | 0 | 1.7 | 7.0 | 0.00 | 0.00 | 0.00 | 34 | 1011.0 |
| 20260508231546 | 70 | 248 | 0.9 | 7.8 | 0.00 | 0.00 | 0.00 | 34 | 1011.0 |
| 20260508231037 | 70 | 0 | 2.6 | 7.8 | 0.00 | 0.00 | 0.00 | 33 | 1010.9 |
| 20260508230535 | 70 | 222 | 3.5 | 7.8 | 0.00 | 0.00 | 0.00 | 33 | 1010.9 |